sat.trackr.live / text

‹ back to catalog

ASIASAT 7

NORAD 37933 · 2011-069A

PAYLOAD ACTIVE UNKNOWN

§ Identity

Operator
Country
AC
Launch date
2011-11-25
Launch site
TYMSC
Launch vehicle
Mass (kg)
RCS (m²)
45.07

Purposes: comms

External: N2YO · Heavens-Above · Gunter

§ Orbital elements

Epoch: 2026-09-20T00:18:54.068256Z

Period
1,436.07 min
Inclination
0.0153°
Eccentricity
0.0001784
Mean motion
1.00273606 rev/d
Perigee alt
35,778.6 km
Apogee alt
35,793.6 km
Semi-major
42,164.2 km
B*
0.0000e+0
RAAN
126.8194°
Arg perigee
18.8415°
Mean anomaly
323.4889°
Rev number
4,581

§ Raw data

ASIASAT 71 37933U 11069A   26263.01312579 -.00000338  00000+0  00000+0 0  99922 37933   0.0153 126.8194 0001784  18.8415 323.4889  1.00273606 45814

JSON: /api/v1/satellites/37933 · /tle

For live sub-satellite position, see the globe view (requires WebGL).

§ Visibility from observer

Set your observer location to see the next 7 days of passes ≥ 10°. The values pass through the URL so the page stays shareable.

No JS? Fill the form by hand. The geolocation button needs JavaScript.